Wind_Speed
20 19 19 18 18 18 18 18 18 17 17 17 16 16 15 14 14 13 12 11 10 9 9 8 8 8 7 7 7 7 8 9 10 10 10 10 10 10 10 9 9 8 8 8 8 8 9 9 10 11 13 13 14 15 15 14 14 13 12 12 12 12 12 11 11 11 12 12 13 13 14 14 15 16 16 16 17 17 19 20 19 19 20 21 21 21 21 22
24 23 22 21 20 20 19 19 19 19 19 19 18 18 17 16 16 15 14 13 13 12 11 11 10 10 10 9 8 8 8 9 9 10 10 10 10 10 10 10 9 9 9 9 10 9 9 9 10 11 12 13 14 15 15 15 15 15 14 13 13 13 12 12 11 11 11 12 12 13 13 13 14 14 15 16 16 17 19 19 19 19 20 20 20 20 21 21
27 26 25 24 23 23 22 21 21 21 21 20 20 20 19 18 18 17 17 16 15 14 13 13 13 13 12 12 11 10 10 10 10 10 10 10 10 10 11 10 10 10 10 10 11 11 11 11 11 11 12 13 14 15 14 15 15 16 16 15 15 14 14 13 11 10 11 11 11 12 13 13 13 14 15 16 16 18 19 19 18 19 20 20 21 21 22 22
30 30 29 28 27 26 25 24 24 23 23 22 22 22 22 21 20 19 19 18 18 17 16 16 15 15 15 14 13 12 12 11 11 10 11 10 10 10 11 11 11 11 10 11 11 12 12 12 12 12 13 14 14 15 15 15 15 16 16 17 17 16 16 15 13 11 11 10 11 12 12 13 13 14 15 16 17 18 19 18 18 19 20 21 21 22 23 24
33 32 32 31 30 29 28 27 26 26 25 25 24 24 24 23 22 22 21 21 20 20 19 18 18 18 17 17 16 15 14 14 13 12 12 12 11 11 11 11 12 12 12 12 12 12 13 13 13 14 14 15 15 15 15 15 15 16 16 17 17 18 18 17 16 14 13 12 12 12 13 14 14 15 16 17 18 18 19 20 19 20 21 22 22 23 24 25
35 35 34 34 33 32 32 31 30 29 28 27 26 26 25 25 25 24 23 23 22 22 21 21 20 20 20 19 19 18 17 16 15 15 15 14 14 13 13 13 12 13 13 14 13 13 13 13 14 14 15 15 16 16 16 16 16 16 16 17 18 18 18 19 18 17 16 14 14 13 13 14 14 15 16 17 19 19 21 22 22 22 23 24 25 25 26 26
36 36 36 36 35 35 34 33 33 32 30 29 29 28 27 27 27 27 26 25 24 24 24 23 23 22 22 21 21 21 20 19 18 17 17 17 16 16 16 15 14 14 14 15 15 14 14 14 15 15 15 15 16 17 17 18 18 18 18 18 18 19 19 19 20 19 19 18 16 16 15 15 15 15 16 17 19 19 21 23 23 24 25 26 27 27 28 28
37 37 37 37 37 36 36 35 35 34 33 32 31 30 30 29 29 29 28 27 27 26 26 25 25 25 24 24 24 23 22 22 21 20 20 19 19 18 18 18 17 16 16 16 16 16 16 16 16 16 16 16 16 17 18 18 19 19 20 19 20 20 20 20 20 20 20 20 19 18 18 18 18 17 18 19 19 20 22 23 24 26 27 27 28 29 30 30
37 37 38 38 38 38 38 37 37 36 35 34 34 33 32 31 31 30 30 30 29 28 28 28 28 27 27 27 26 26 25 24 24 23 22 21 21 21 21 20 20 19 18 18 18 18 17 18 18 18 18 17 17 18 18 19 19 20 21 21 21 21 21 21 21 21 22 21 21 20 21 22 22 21 20 21 21 22 23 24 25 27 28 29 30 31 31 32
37 37 38 38 39 39 39 38 38 38 37 37 36 35 34 33 33 32 32 31 31 31 30 30 30 29 29 29 28 28 28 27 26 26 25 24 24 24 24 23 22 22 21 20 20 20 19 19 20 19 19 19 19 19 19 20 20 21 22 22 22 22 22 22 22 22 23 23 22 21 21 23 25 24 23 23 23 24 25 26 27 27 29 29 30 31 32 33
37 37 38 38 38 39 39 39 39 39 39 38 38 37 36 35 35 34 34 34 33 33 32 32 32 31 31 31 30 30 30 29 29 28 27 27 27 27 26 25 25 24 24 23 23 22 22 21 21 21 21 21 21 21 21 21 21 22 23 23 23 23 23 23 23 23 23 24 23 22 21 23 27 25 24 24 25 26 26 27 28 28 29 30 31 32 32 33
37 37 37 38 38 39 39 40 40 40 40 40 39 39 38 37 37 37 36 36 35 35 34 34 34 34 33 32 32 32 32 31 31 30 30 29 29 29 28 28 27 26 26 26 25 25 24 23 23 23 23 23 23 23 22 23 23 23 23 24 25 25 25 25 25 24 25 25 25 24 19 19 27 28 25 25 26 26 27 28 29 29 30 30 31 32 33 34
36 37 38 38 39 39 40 40 40 41 41 41 41 41 40 39 39 39 38 38 38 37 37 36 36 36 35 34 35 34 34 33 33 32 32 31 31 30 30 30 29 29 28 28 27 27 27 26 26 25 25 25 25 25 24 24 24 25 24 24 25 26 27 27 27 26 27 27 26 26 19 15 25 31 29 27 27 27 27 28 29 30 31 31 32 33 34 35
36 37 37 38 39 40 40 41 41 41 42 42 42 42 42 41 41 41 40 40 40 39 39 38 38 37 36 36 36 36 36 35 35 34 33 33 32 32 32 32 31 31 30 30 29 29 29 29 28 27 27 27 27 27 27 27 26 27 26 25 26 26 28 29 30 29 30 30 28 29 23 15 20 29 30 30 29 28 27 28 30 31 32 32 33 34 35 35
36 36 37 38 39 40 41 41 42 42 42 43 43 44 43 42 42 43 42 42 42 41 41 41 40 40 38 37 38 38 38 37 36 36 35 35 34 34 34 33 33 33 32 32 31 31 31 30 30 29 29 28 29 29 29 29 28 29 28 27 27 27 28 29 31 32 33 33 31 32 29 20 19 26 30 31 32 30 28 29 32 33 32 32 33 35 35 36
36 36 37 37 38 39 40 41 42 42 43 44 44 44 45 44 44 44 44 44 44 44 43 43 42 42 40 39 40 40 39 39 38 38 37 36 35 35 35 35 35 34 34 34 33 33 32 32 31 31 31 30 30 31 31 31 30 31 31 29 28 27 28 29 32 34 35 36 34 34 34 27 23 26 29 31 33 32 29 31 33 34 33 33 35 36 36 38
38 38 37 38 38 39 40 41 42 42 43 44 44 45 46 45 45 46 46 46 46 46 46 45 45 45 43 42 42 41 41 40 39 39 38 37 37 37 37 36 36 36 35 35 35 34 34 34 33 32 32 31 32 33 33 32 32 33 32 31 29 29 29 30 32 35 37 38 36 37 37 33 29 28 29 31 34 33 31 32 35 35 34 35 36 37 38 39
41 40 39 39 39 39 40 40 41 42 42 44 44 45 46 46 46 46 47 47 47 47 47 47 47 47 45 45 44 43 43 42 40 39 39 38 38 38 38 37 37 36 36 36 36 36 36 35 34 33 32 32 34 34 35 34 34 34 34 33 31 30 30 31 34 36 38 40 38 39 41 38 33 31 30 33 35 34 33 34 36 35 35 36 37 38 39 39
44 43 42 41 41 40 40 41 41 41 42 43 44 45 46 47 47 47 47 47 47 48 48 48 48 48 47 46 46 46 45 44 42 41 40 40 40 39 39 39 38 38 38 37 37 37 37 37 36 33 33 34 36 35 35 36 36 36 36 36 34 33 32 33 36 37 40 42 40 41 43 42 38 34 33 35 37 35 34 35 36 36 37 38 39 39 40 41
45 45 45 44 44 43 42 41 41 41 41 42 44 45 45 46 47 47 47 47 47 48 48 49 49 48 48 48 48 48 47 45 44 42 42 42 42 42 41 41 40 40 39 39 40 39 39 39 36 34 35 36 37 36 36 37 37 38 38 38 37 36 35 35 38 39 41 45 43 42 45 45 41 37 35 37 39 36 35 36 35 36 38 39 40 40 41 42
47 47 47 47 47 46 45 44 43 43 42 42 43 44 45 45 46 47 47 47 48 48 48 48 49 49 49 49 49 49 48 46 45 44 44 44 44 44 43 43 43 42 41 42 43 42 42 41 37 37 39 38 38 38 37 38 38 40 40 40 39 39 39 39 39 41 43 47 46 45 48 46 42 40 37 39 40 36 36 37 35 36 39 39 40 41 41 43
48 48 48 49 49 49 48 47 45 45 45 44 44 44 45 46 46 46 47 47 46 47 48 47 48 49 48 49 49 48 48 47 46 45 45 46 45 46 46 45 45 44 44 44 45 44 44 42 38 39 41 40 39 39 38 39 40 41 42 42 41 41 43 43 42 43 46 49 49 49 52 49 44 42 37 38 41 38 36 37 35 35 38 39 40 41 42 44
49 49 49 49 50 51 51 50 49 48 48 47 46 46 46 46 47 47 48 49 46 45 47 47 48 48 47 47 47 47 47 46 45 45 45 46 46 46 47 46 45 45 45 45 46 47 46 43 41 41 42 41 41 40 40 41 42 43 43 44 43 43 45 46 45 46 48 51 52 53 55 51 48 45 37 35 40 41 38 35 34 35 37 38 39 40 43 46
49 50 50 50 50 51 52 52 52 51 51 50 49 49 49 48 49 49 50 52 51 46 45 47 48 48 46 46 45 45 45 44 44 43 44 45 46 46 47 46 46 46 45 46 47 48 46 44 43 43 42 43 43 42 42 42 44 45 45 44 44 45 46 48 49 50 51 52 53 55 57 54 52 48 38 33 36 41 42 36 34 36 36 36 38 40 43 47
49 49 50 51 52 51 52 53 53 53 53 53 53 52 52 52 51 52 53 56 58 51 46 48 49 47 45 44 43 42 43 42 41 41 42 43 44 45 46 46 46 45 45 47 49 49 46 44 45 44 44 45 45 44 43 44 46 47 46 44 45 47 48 50 51 53 54 55 55 56 56 56 56 52 43 37 35 36 42 41 37 37 35 35 37 40 44 47
50 49 49 51 52 53 53 54 53 54 54 54 55 54 54 54 54 55 55 59 63 58 52 51 50 48 45 44 43 42 43 42 40 41 42 43 44 45 46 46 46 46 46 47 49 50 46 44 45 45 45 46 45 44 43 45 48 49 47 45 46 48 49 51 52 54 56 58 58 55 54 58 60 55 46 43 38 34 38 42 40 37 36 36 38 41 43 46
52 51 50 50 52 53 55 55 54 55 55 55 56 56 56 56 56 56 57 62 67 64 60 55 51 49 47 45 44 44 45 45 43 43 43 43 44 45 45 45 44 45 46 47 50 49 45 44 44 45 46 46 45 44 44 46 48 50 48 47 48 48 50 52 53 55 56 60 62 55 53 60 63 56 49 45 40 34 34 39 42 40 38 37 38 41 43 47
52 52 51 51 52 53 54 56 56 56 56 56 56 56 57 57 57 57 58 66 71 68 65 60 53 49 47 45 44 44 46 46 45 45 44 44 45 45 46 45 45 46 46 48 49 47 45 45 45 45 46 46 45 45 45 46 48 50 50 49 49 49 52 54 55 57 57 61 64 56 52 60 63 59 54 47 41 36 34 37 41 41 40 39 39 41 44 47
53 53 52 52 52 53 53 55 57 57 57 57 57 57 57 58 58 58 61 69 74 70 66 62 57 51 47 45 45 45 46 46 47 47 45 46 47 47 47 47 47 48 47 48 49 47 46 46 46 46 46 45 45 46 47 48 49 50 50 50 50 51 53 55 57 58 59 64 64 56 53 59 64 60 53 48 43 39 38 39 40 40 41 41 41 42 44 47
54 54 53 53 53 53 53 53 55 56 58 59 59 59 59 59 59 60 67 74 74 69 66 64 60 54 49 47 46 46 46 46 47 47 47 47 47 47 48 47 47 48 48 49 48 46 46 46 46 46 46 46 46 47 48 48 49 49 49 50 51 53 56 57 59 59 61 65 63 57 56 60 66 61 52 49 45 41 42 42 41 41 42 41 41 42 44 47
55 55 54 54 54 54 54 53 54 55 56 58 59 60 60 61 61 66 74 76 72 68 67 65 61 56 52 49 47 46 46 46 46 46 47 47 47 48 48 47 47 47 48 48 46 45 46 46 46 46 46 46 46 47 47 48 49 49 50 51 52 56 58 59 61 60 63 66 62 58 58 61 66 60 52 51 47 45 47 44 42 43 42 41 41 43 46 48
55 55 55 55 55 55 55 55 54 53 54 55 57 59 61 63 66 71 76 74 70 69 67 62 60 58 55 52 50 48 47 47 47 47 48 48 49 49 48 47 47 47 48 47 46 46 46 46 46 46 46 46 46 47 48 48 49 50 51 52 54 57 59 60 62 62 64 65 62 60 61 63 64 58 54 51 47 50 53 46 44 44 42 41 42 46 49 50
57 56 55 55 55 56 56 56 55 55 55 54 55 57 59 64 69 71 74 72 70 69 66 62 61 59 58 56 53 51 50 50 49 49 49 50 51 51 50 49 48 48 48 48 48 49 49 49 48 47 46 46 47 47 49 50 51 52 53 53 55 57 58 60 62 63 65 64 61 61 63 64 62 57 55 53 49 54 55 47 45 44 41 42 44 48 51 50
59 59 57 56 56 56 57 56 57 57 56 56 56 56 58 65 67 67 69 70 69 67 65 64 62 61 60 59 58 55 53 53 52 51 51 52 53 53 51 51 50 50 50 51 52 52 52 52 51 49 48 50 51 50 51 53 54 56 56 56 57 57 58 60 62 63 64 63 62 64 65 64 61 58 59 56 52 56 56 48 45 44 43 44 46 50 50 50
62 62 61 59 58 58 59 59 59 59 59 59 59 59 62 66 65 64 65 67 67 66 65 63 62 62 62 61 61 59 56 55 54 53 54 54 55 55 54 53 53 52 52 53 54 53 54 56 54 53 54 54 54 53 53 54 56 57 57 58 58 57 57 60 61 61 61 62 63 65 65 62 59 60 62 59 54 56 56 48 46 46 45 45 47 49 49 51
65 64 64 62 61 62 63 63 62 62 62 63 63 65 66 66 64 62 63 64 66 66 65 64 63 63 63 63 62 60 58 56 55 56 57 57 57 57 57 56 54 54 54 54 54 54 55 56 56 57 57 56 55 53 53 54 55 56 55 55 55 55 56 58 60 58 58 61 62 62 63 61 60 63 65 59 53 54 53 49 47 47 44 43 46 48 49 53
68 67 67 66 65 67 69 68 68 68 67 67 68 68 67 65 64 63 62 63 64 65 66 66 65 64 64 64 63 60 59 58 59 59 59 59 60 60 59 58 56 56 55 54 54 54 55 57 57 58 59 58 56 54 54 54 54 54 53 53 53 55 56 56 58 58 59 63 64 61 63 64 65 68 66 58 52 52 52 49 47 44 42 43 47 49 52 57
68 68 68 66 65 67 69 70 72 72 71 71 71 69 68 67 65 64 64 63 63 64 66 66 66 66 65 65 64 63 62 62 62 63 62 63 64 63 61 59 58 56 54 54 55 55 56 58 59 59 60 59 57 57 58 57 56 56 55 54 56 57 58 57 58 60 62 65 67 65 65 68 71 69 62 54 50 50 50 48 46 44 43 47 50 52 57 59
67 68 68 65 64 65 66 68 70 71 72 73 72 70 68 67 67 67 67 66 64 64 66 66 67 68 68 68 67 67 66 66 65 65 65 66 66 65 63 61 59 57 55 56 57 57 58 60 61 61 62 62 62 63 62 60 60 60 59 60 61 61 61 61 62 64 65 66 68 68 67 68 67 62 56 50 46 45 46 47 46 45 46 50 52 55 59 58
66 68 67 65 65 66 67 69 69 68 71 71 70 68 67 65 64 63 65 67 67 68 68 67 68 69 69 69 69 68 68 67 66 66 66 66 67 66 64 62 61 59 59 59 60 60 60 61 63 63 65 67 67 65 64 63 64 64 64 64 65 64 64 65 67 68 67 67 69 71 71 67 61 56 51 47 44 43 44 47 48 47 47 50 53 56 57 56
69 71 68 66 68 68 68 70 69 68 70 70 69 69 69 67 64 63 63 65 67 69 69 69 70 70 70 70 70 69 69 69 68 68 69 68 67 66 64 63 62 62 63 64 64 64 64 63 63 63 66 69 68 67 68 69 68 68 68 67 66 66 67 67 69 69 68 69 70 73 76 67 56 52 49 46 46 44 42 47 51 50 49 52 55 56 56 56
73 74 71 70 72 72 72 74 73 73 75 75 73 71 69 69 69 68 66 65 65 66 66 66 65 66 66 67 68 69 70 70 69 69 70 68 67 66 63 63 65 66 67 67 67 67 66 64 63 63 65 67 67 69 71 72 71 71 70 68 69 69 68 67 67 67 68 71 73 77 80 70 54 49 48 48 48 45 43 49 53 53 52 54 56 56 57 57
76 76 75 74 74 75 77 78 77 78 78 76 75 74 72 70 69 69 68 67 68 68 67 67 66 65 65 65 66 67 68 70 70 70 71 70 68 67 66 66 67 68 68 69 69 68 65 63 63 63 64 66 68 70 72 73 72 71 69 68 70 71 68 66 67 69 71 72 74 78 80 70 55 48 48 48 47 45 45 50 53 53 53 54 55 56 58 58
78 78 78 78 78 79 80 79 77 78 77 73 72 72 72 71 69 67 66 66 66 67 67 68 68 68 66 64 64 64 65 68 70 70 70 69 66 64 63 64 64 65 65 65 67 67 65 64 63 63 65 68 69 69 69 69 68 68 68 69 70 68 66 68 69 71 73 71 72 76 77 68 56 50 50 48 45 45 47 50 52 52 53 53 54 57 58 58
71 75 77 78 79 82 82 78 76 77 76 74 72 70 70 70 67 64 63 63 63 64 66 67 67 65 64 63 64 64 64 66 68 67 66 65 64 62 62 61 60 60 61 62 64 65 66 66 66 67 70 72 70 67 67 67 68 69 67 66 65 63 64 67 66 69 74 72 72 74 73 67 57 52 53 48 44 45 48 50 51 52 52 54 55 57 57 56
67 69 73 76 80 83 81 77 78 79 78 78 78 75 74 73 70 67 67 68 68 69 70 70 68 67 66 66 67 67 66 66 68 69 67 66 67 67 67 65 63 62 62 63 65 67 69 71 71 71 73 73 69 65 65 67 68 67 64 62 61 60 61 63 65 70 74 74 74 70 67 67 61 56 55 50 45 47 49 49 51 52 54 56 55 55 54 54
79 75 71 72 78 84 83 79 80 81 81 81 79 77 75 75 73 72 72 73 73 73 73 72 71 71 70 69 69 69 67 67 69 69 66 64 65 67 68 69 68 67 66 66 68 70 74 75 72 71 72 71 69 66 64 66 67 66 64 64 62 61 61 62 67 71 71 74 76 67 64 69 65 59 57 52 47 48 49 49 51 55 56 56 55 55 54 54
90 87 80 74 74 78 81 80 80 82 83 84 82 79 76 76 75 75 75 74 75 75 75 75 74 72 71 69 70 70 68 66 66 65 64 64 64 66 67 67 66 66 66 67 69 72 75 76 72 71 73 72 70 69 68 69 68 67 66 65 62 62 62 64 68 68 67 74 78 71 68 71 66 61 59 51 45 47 50 51 53 55 55 54 56 56 55 56
92 91 90 86 83 80 78 76 77 80 82 84 85 84 82 81 80 78 77 77 77 76 77 78 75 73 73 72 73 74 71 69 69 69 68 68 66 66 66 64 65 65 65 67 69 70 74 75 70 70 74 73 70 68 68 69 68 67 65 63 60 61 62 65 66 64 67 76 79 75 73 71 66 63 57 47 45 51 54 53 53 54 54 56 58 57 56 56
96 94 92 92 92 91 86 81 78 79 80 82 84 85 84 83 82 80 80 81 80 78 78 77 75 74 75 75 76 77 74 73 74 72 69 67 65 65 65 64 65 66 66 68 68 69 72 71 69 69 73 73 69 67 67 68 68 67 64 61 61 61 63 66 67 66 68 74 75 74 75 73 67 60 52 47 50 55 55 54 54 55 55 57 59 58 56 56
98 99 97 95 95 95 95 92 88 85 83 82 83 84 84 84 83 82 83 84 81 80 79 78 76 75 76 77 77 76 74 74 74 69 66 68 69 69 69 70 71 72 72 71 71 71 72 72 71 71 75 76 71 68 68 68 68 68 66 63 63 63 64 67 69 69 69 70 71 73 76 74 65 55 52 53 56 58 57 57 57 56 56 59 60 58 57 56
97 99 100 100 100 96 93 92 92 91 91 89 86 83 82 81 80 82 85 87 84 81 80 79 78 78 79 78 76 72 71 72 73 71 70 72 74 74 74 75 75 75 74 73 73 73 73 74 75 74 77 78 73 69 69 68 68 71 71 68 66 64 66 71 72 70 69 70 72 74 74 70 61 54 54 57 60 61 59 58 57 57 58 59 59 58 58 57
Wind_Direction
245 245 246 247 247 248 250 253 256 259 262 264 267 269 271 273 274 277 277 278 278 278 277 276 277 280 286 295 306 316 325 331 335 338 342 344 340 336 335 334 336 340 344 346 346 347 347 339 332 331 330 327 324 323 323 326 328 329 329 329 329 331 335 341 345 345 340 337 333 326 322 317 315 314 311 309 307 303 298 297 300 299 296 295 295 293 292 291
247 248 247 248 248 249 250 251 254 257 259 262 264 266 267 269 271 272 273 274 273 273 273 273 273 274 278 282 288 297 305 313 321 328 335 335 333 332 329 326 326 328 333 336 335 337 341 338 332 330 328 324 320 318 317 319 322 324 325 325 325 326 329 334 341 343 342 342 341 336 332 327 323 318 312 310 307 303 301 303 305 301 298 297 295 293 292 290
248 249 249 249 249 250 250 251 252 254 257 259 262 264 265 266 267 269 270 271 271 270 269 269 270 271 273 275 280 285 291 299 306 312 319 322 325 327 324 320 317 319 324 328 329 329 332 334 331 329 327 324 320 316 314 315 317 319 321 321 321 321 322 325 331 336 336 337 337 335 333 331 328 321 316 315 312 309 310 310 306 300 298 296 295 294 292 290
247 249 250 251 251 251 251 251 252 253 255 257 259 262 264 264 265 266 268 269 269 270 269 267 268 270 270 272 274 277 281 287 292 297 303 308 313 316 317 314 310 310 314 319 321 322 324 325 328 329 325 322 320 317 315 315 315 316 316 316 317 317 317 319 322 325 327 328 328 326 325 325 325 322 320 321 319 317 315 312 307 303 301 299 298 297 294 293
247 248 249 250 251 252 252 252 253 253 254 255 257 259 262 264 264 264 265 266 267 268 268 268 267 267 269 270 271 273 275 278 283 289 293 297 301 304 306 307 306 305 306 309 312 315 316 318 323 325 321 319 319 318 317 316 315 315 313 312 312 313 313 314 317 319 321 322 321 319 317 318 321 320 319 319 318 317 314 312 312 309 307 305 303 301 300 299
248 248 248 249 250 251 252 253 253 253 254 254 256 257 259 262 264 264 263 264 265 266 267 267 267 266 266 267 269 271 272 274 279 283 285 288 291 295 296 298 301 301 301 303 305 308 309 311 314 316 316 316 316 316 317 317 316 315 313 312 311 311 310 310 313 315 317 319 319 317 315 317 319 318 318 317 317 316 314 314 313 310 309 308 306 306 305 304
251 250 250 250 250 251 251 252 253 254 254 255 256 257 258 260 262 264 263 263 263 264 265 266 266 266 265 265 266 268 270 271 274 277 279 282 285 288 290 291 294 295 296 298 300 301 303 304 305 309 311 311 312 313 315 316 316 315 315 313 312 312 310 309 310 311 313 315 316 316 314 315 316 316 317 316 317 317 316 315 314 313 311 309 308 307 306 306
254 254 253 253 253 253 253 253 254 254 254 255 255 256 258 259 260 262 263 263 263 263 263 264 265 266 266 265 265 266 267 268 270 272 274 277 280 282 285 286 288 290 291 293 295 297 299 300 300 302 305 308 309 310 311 312 313 314 314 314 314 312 311 310 309 309 309 310 312 312 312 312 312 314 315 315 316 316 316 315 315 314 313 311 310 308 307 306
255 255 255 255 256 257 257 257 256 256 256 256 256 256 257 258 259 261 262 263 263 263 263 263 264 265 265 266 266 266 266 267 268 269 271 274 276 278 280 281 283 285 287 289 292 294 296 298 299 299 300 303 305 305 306 307 309 311 311 313 313 312 311 311 310 309 308 307 309 309 309 310 309 310 312 312 312 313 314 313 312 312 312 311 310 309 308 307
256 256 256 257 257 258 258 259 260 259 259 258 258 257 258 258 259 259 261 262 263 263 263 263 263 264 264 265 266 266 266 268 268 269 270 272 273 276 277 278 280 282 284 286 288 291 293 295 296 297 297 299 301 302 302 303 305 307 308 309 310 310 311 311 310 309 308 307 308 308 309 310 307 307 309 310 310 310 310 309 309 309 308 309 308 308 307 306
258 257 257 257 258 258 259 259 260 261 261 261 261 260 260 260 260 260 260 261 262 262 262 263 263 263 263 264 265 265 267 267 268 269 269 271 272 274 275 277 278 280 282 283 285 287 289 291 293 294 295 296 298 299 300 301 301 302 305 306 307 308 308 309 309 309 308 307 308 308 313 313 306 306 309 309 309 309 309 309 308 307 306 306 305 305 305 304
260 258 258 257 258 258 259 259 260 260 261 262 262 262 262 262 262 261 261 262 262 262 262 262 262 262 263 264 264 264 266 267 267 268 269 270 271 273 274 276 277 279 280 281 283 285 287 288 289 292 293 294 296 297 298 298 298 299 300 302 305 305 306 306 306 307 306 306 307 307 315 317 306 307 311 310 310 310 311 310 308 306 305 305 305 305 306 306
261 260 259 258 258 258 259 259 260 261 261 261 262 262 262 263 263 262 262 262 263 263 262 262 262 262 262 263 264 264 265 266 267 267 268 269 270 272 274 275 277 278 280 281 282 283 285 286 287 289 291 292 294 296 297 297 297 297 297 299 301 303 305 304 304 305 304 304 305 305 312 317 306 306 310 310 311 311 313 312 309 307 305 306 306 306 307 307
261 260 260 259 258 258 258 259 260 261 261 262 262 262 262 263 264 264 264 264 264 264 264 264 263 263 262 263 264 265 265 266 267 268 268 269 270 272 274 275 277 278 279 280 281 282 284 285 286 287 289 291 293 294 296 296 297 297 296 297 298 300 303 303 303 304 303 303 304 304 307 312 305 304 307 309 309 311 314 313 310 309 308 307 306 306 307 307
260 260 260 260 259 259 259 259 260 260 261 262 263 263 263 263 264 265 265 266 266 266 266 266 266 265 264 265 265 266 266 267 268 269 270 271 272 273 274 276 277 278 279 280 281 282 283 284 286 287 288 289 291 293 294 295 296 296 296 296 296 298 300 301 302 303 302 301 304 304 304 308 303 299 303 306 306 309 313 312 309 309 310 310 307 306 306 306
262 261 260 260 260 260 260 260 260 260 261 262 263 264 264 264 265 266 266 267 267 267 268 268 268 267 267 267 267 267 268 269 269 271 272 273 274 275 275 276 277 278 279 281 282 283 283 284 286 287 288 289 291 292 292 293 294 294 295 296 295 296 298 299 300 300 299 300 303 303 303 306 303 298 301 303 304 306 310 310 308 308 311 311 308 306 305 305
264 263 262 261 260 261 261 261 261 261 262 262 263 264 265 265 265 266 267 268 268 269 269 269 269 269 269 269 268 269 269 270 271 272 274 275 276 276 276 277 278 279 280 281 282 283 283 284 286 287 289 291 291 290 290 292 293 293 294 295 295 295 296 298 297 297 297 298 302 302 303 305 302 300 301 302 302 304 308 308 306 307 310 310 308 306 306 305
264 265 264 263 262 261 261 261 261 261 262 263 263 264 265 266 265 266 267 268 269 270 270 270 270 270 271 271 271 271 271 271 272 273 275 276 276 277 277 278 279 279 280 280 282 283 283 285 286 288 292 292 289 289 290 291 291 291 292 293 294 293 294 296 295 294 295 297 300 301 302 303 303 303 303 302 301 303 306 305 304 307 309 308 307 307 308 307
264 264 265 265 264 262 262 261 261 261 262 262 263 263 264 265 266 266 266 267 268 269 270 270 271 271 272 272 272 272 272 273 273 274 275 276 277 277 278 278 279 279 280 281 281 281 283 284 286 290 292 289 288 290 291 291 290 291 291 292 293 292 292 294 292 293 295 296 298 300 300 302 305 307 306 303 301 305 306 304 304 306 307 305 306 308 310 308
264 264 264 265 264 264 263 262 262 262 262 262 263 263 264 265 266 266 267 267 267 268 269 270 270 271 271 272 272 272 273 274 275 276 276 276 277 277 277 278 278 279 280 281 280 280 282 283 286 290 288 287 289 291 290 290 291 291 291 291 292 292 292 292 292 293 294 294 296 298 298 301 305 307 307 303 302 306 306 303 305 305 304 303 305 308 310 307
264 264 263 264 264 265 265 264 264 263 262 261 262 263 264 265 265 266 266 266 267 268 268 268 270 270 271 271 272 273 274 275 276 277 276 276 276 277 277 277 277 278 279 280 280 280 280 281 286 287 285 287 290 290 290 291 291 291 291 291 292 293 292 291 292 293 293 293 295 297 296 300 304 305 307 304 302 306 305 302 304 303 301 301 304 307 307 305
263 263 263 263 264 264 265 265 265 265 264 263 263 263 264 265 266 267 267 266 266 268 269 269 269 269 270 270 272 273 274 275 276 277 277 277 277 277 277 277 277 278 278 279 280 280 280 281 285 285 286 289 289 290 291 291 291 291 290 291 293 293 292 292 293 293 292 293 295 297 297 300 303 303 307 307 304 305 303 301 303 299 298 301 304 305 305 304
262 262 262 263 263 263 264 265 265 266 266 265 265 264 264 265 266 268 269 268 266 265 268 270 270 270 270 271 272 273 274 275 276 276 277 277 277 277 277 278 278 277 278 279 280 280 281 283 284 284 286 288 288 289 290 290 290 290 290 291 293 293 293 293 294 293 292 293 295 297 298 302 303 302 306 307 304 303 301 301 302 299 298 302 303 304 303 302
263 262 261 262 263 263 263 264 264 265 266 266 266 266 266 266 267 268 269 270 268 264 265 268 269 270 272 273 274 275 276 276 276 276 276 277 277 277 277 278 277 278 279 279 279 279 281 283 284 285 286 286 287 288 289 290 290 289 289 291 293 293 293 294 294 293 292 293 295 297 300 304 304 303 306 306 302 300 301 306 307 303 302 302 302 301 299 298
266 264 262 261 262 263 263 263 264 264 265 266 266 266 267 266 267 268 268 270 270 267 264 265 267 269 271 274 276 277 278 278 278 279 278 278 278 277 277 277 277 278 279 279 279 279 281 283 284 285 285 285 285 287 289 289 288 287 289 291 292 292 293 293 293 293 293 293 295 296 301 305 303 303 308 308 304 300 303 309 310 305 304 302 299 297 296 295
267 267 265 264 263 262 263 263 264 264 264 265 266 266 267 267 268 268 269 270 271 270 266 263 264 267 270 272 275 277 278 279 280 280 279 278 278 277 277 277 278 279 278 278 278 279 281 283 283 283 284 284 285 287 288 287 287 287 289 290 291 292 293 292 292 293 293 295 295 296 302 304 301 302 308 308 305 304 306 309 309 307 305 302 299 296 295 295
267 267 267 267 265 264 263 264 264 264 265 265 265 266 267 268 268 269 270 271 271 271 269 266 265 267 269 270 272 274 275 277 277 276 277 277 277 277 278 278 279 278 278 277 277 279 282 282 282 282 283 284 285 287 287 286 286 287 289 290 291 292 291 291 291 291 292 294 294 296 301 301 298 301 305 305 305 307 307 307 307 308 306 303 301 299 297 296
265 266 267 267 267 267 266 265 265 265 265 265 265 266 266 267 268 269 270 270 270 271 271 271 270 270 271 272 273 273 274 275 275 274 275 275 276 276 277 277 277 277 277 277 278 280 282 282 282 282 282 283 285 286 285 285 285 287 289 291 291 290 289 289 289 290 292 293 294 297 299 297 297 299 302 305 307 308 308 305 304 305 305 305 304 301 299 298
265 265 266 266 267 267 267 266 266 266 266 266 266 265 266 266 267 268 268 268 268 270 272 274 274 274 275 275 275 275 274 275 274 274 274 273 273 274 274 275 275 276 276 277 278 280 281 282 282 281 282 283 284 283 283 284 285 287 289 289 289 288 288 288 287 289 291 291 295 299 297 296 296 296 301 307 308 308 310 307 304 305 306 307 306 303 301 299
265 266 266 266 266 267 267 267 267 267 267 267 266 266 266 266 266 267 265 265 267 270 273 275 276 277 278 277 276 275 275 275 275 275 275 274 274 273 273 274 274 275 275 276 277 279 280 280 280 281 282 281 281 282 283 284 285 286 287 286 286 287 286 286 286 288 289 291 295 297 296 296 294 295 304 309 306 308 308 307 307 307 307 308 307 304 302 301
265 266 266 266 266 267 267 267 267 267 267 267 267 266 266 266 265 264 263 265 268 270 272 274 277 279 278 277 276 275 275 275 275 275 275 275 275 274 274 275 275 275 276 277 278 279 279 278 279 279 279 280 281 282 283 283 284 284 284 284 284 284 283 284 285 286 287 290 294 295 295 294 291 296 307 307 305 307 306 307 310 309 308 309 308 305 303 302
263 264 265 266 267 267 267 267 267 267 266 266 266 266 266 265 263 262 263 266 269 269 271 274 277 278 278 277 276 276 276 275 275 275 275 275 275 276 277 277 277 278 278 279 280 279 278 278 278 278 280 281 281 282 282 281 281 281 281 281 281 281 282 283 285 287 287 289 293 294 293 291 292 300 305 303 304 306 305 309 313 309 308 309 308 305 303 301
263 263 264 265 266 267 267 267 267 267 266 266 265 265 265 263 263 263 264 265 268 270 273 275 275 276 277 277 276 275 275 274 274 274 274 275 275 276 277 278 278 279 280 281 280 279 279 279 280 281 281 281 281 280 280 280 280 279 279 279 279 280 282 284 287 289 288 290 293 292 290 290 295 302 301 299 303 304 304 310 312 309 309 309 308 304 300 298
264 264 263 263 264 265 265 265 266 266 266 265 264 264 263 263 265 266 266 266 268 271 273 274 275 276 276 276 276 276 275 275 274 274 274 274 274 275 276 277 278 279 280 281 281 282 282 281 281 283 282 280 280 279 279 280 280 280 280 280 280 283 284 286 288 288 289 291 290 289 289 292 297 300 297 297 302 304 305 310 311 309 310 310 307 302 298 296
264 265 265 265 264 264 264 264 264 264 264 265 265 263 263 266 269 270 270 270 269 269 271 272 274 275 275 275 276 276 276 275 275 275 274 274 274 275 276 276 277 279 280 281 282 283 283 282 282 283 281 280 280 280 281 282 281 281 282 282 285 288 288 287 287 288 290 290 288 288 290 292 295 295 292 295 303 304 303 308 310 308 311 311 304 298 297 295
265 265 266 266 265 265 264 264 263 263 263 263 264 264 266 270 273 274 273 271 269 269 270 270 271 272 272 273 274 275 276 276 275 274 274 274 274 275 275 276 278 279 280 282 283 283 283 282 281 281 280 280 280 281 282 281 281 282 283 286 289 289 287 286 287 288 288 288 288 290 291 292 293 291 290 296 303 302 303 307 307 307 312 309 299 296 296 293
266 267 266 267 267 265 265 265 264 263 263 262 262 265 269 271 273 274 274 273 271 269 268 268 269 270 271 272 272 273 274 274 274 274 275 275 274 274 275 276 278 279 280 282 283 282 282 281 280 279 280 280 281 282 282 281 281 283 285 288 288 286 284 285 286 286 287 287 288 289 291 292 290 289 293 301 304 303 304 306 305 309 311 304 297 297 294 291
266 266 266 267 268 267 266 265 264 262 261 261 262 265 268 270 271 273 273 273 272 270 269 269 270 270 270 271 271 271 272 272 273 274 275 275 275 276 277 278 278 279 280 281 281 281 282 281 279 279 280 281 283 283 282 282 285 287 287 287 285 283 283 283 284 286 286 286 287 290 291 290 288 290 296 302 304 305 306 305 304 307 307 302 299 297 292 292
265 264 264 265 266 266 266 264 262 262 261 262 265 267 269 270 270 270 271 272 272 271 269 269 269 269 269 270 270 270 271 272 272 273 274 275 276 277 278 279 279 280 280 280 279 280 280 279 278 280 282 283 282 282 283 286 288 287 286 284 283 283 283 284 284 285 285 286 289 291 290 288 289 293 298 302 305 307 306 301 300 303 304 301 298 293 291 294
265 263 262 261 262 263 264 264 263 262 262 264 266 267 267 268 269 270 271 271 270 269 268 268 268 268 269 269 270 271 272 272 273 273 273 274 275 276 277 278 279 280 280 279 279 278 277 276 277 279 281 281 281 282 284 284 283 282 282 282 282 283 284 284 283 284 286 288 289 289 287 288 292 297 301 305 307 307 303 298 299 304 303 298 293 290 292 295
265 263 261 260 260 261 262 263 264 264 264 265 265 265 265 266 268 270 270 270 269 269 269 269 268 268 269 270 271 272 272 273 273 273 273 273 274 275 276 277 279 279 279 278 278 277 277 275 275 277 278 279 280 281 281 279 279 280 279 280 281 282 282 282 282 285 287 287 286 284 284 288 295 299 304 307 306 305 301 298 301 304 300 294 292 292 294 294
262 262 262 261 260 260 261 262 263 264 265 265 266 268 269 269 268 268 268 268 269 269 270 271 271 272 272 272 272 272 272 272 272 273 273 273 273 275 277 278 279 279 278 277 277 277 277 275 275 275 276 277 278 278 277 277 277 278 279 282 284 282 282 282 283 284 283 283 283 281 281 287 296 301 303 305 304 302 300 300 302 301 296 293 294 295 295 295
261 262 262 261 261 260 260 261 261 262 263 265 267 269 270 270 269 267 266 267 268 269 270 271 273 274 274 274 273 272 272 273 273 273 273 274 276 278 279 279 278 278 276 276 276 275 275 275 275 274 274 275 277 277 276 276 277 278 283 286 285 284 283 282 282 282 281 283 284 281 281 289 301 304 302 302 301 300 300 301 300 296 293 294 295 295 295 293
263 263 262 262 262 261 261 261 262 264 265 266 265 266 266 267 267 267 266 266 267 269 270 271 271 272 273 273 273 274 274 274 275 276 276 277 280 281 280 278 276 275 275 275 275 275 274 274 274 274 274 276 278 278 278 279 280 282 284 284 282 282 281 279 281 282 282 285 284 280 283 294 304 305 301 301 300 299 301 300 296 292 293 293 293 293 292 292
260 261 262 263 262 260 260 260 262 263 264 264 264 263 264 265 266 267 267 267 267 268 269 269 270 271 271 272 272 273 274 275 277 278 278 280 282 281 279 277 275 274 274 274 275 275 275 275 274 274 275 277 279 281 282 282 280 280 280 279 280 280 280 280 282 282 282 284 283 282 289 300 304 302 301 302 301 299 300 296 293 291 291 290 290 291 291 290
256 257 259 261 262 262 261 259 259 259 260 262 263 264 264 265 266 266 267 267 267 267 268 268 269 269 269 270 271 272 274 276 276 276 277 279 279 279 278 276 274 273 273 274 274 274 273 272 272 273 274 276 278 281 281 279 276 277 278 279 280 282 282 282 281 281 283 284 283 287 297 301 300 299 301 301 299 298 297 294 291 289 288 288 290 289 288 287
254 254 255 258 261 263 263 260 259 259 260 261 263 264 265 266 265 264 264 265 266 267 267 267 267 268 269 271 274 275 276 276 274 274 276 277 277 277 275 275 274 273 273 273 272 271 270 270 271 273 274 275 277 279 278 275 274 277 279 280 281 282 282 281 280 283 285 283 285 294 300 296 296 299 300 300 299 296 293 289 287 286 288 289 288 286 285 285
254 253 253 253 256 260 261 261 262 261 261 261 262 262 262 263 263 263 264 265 266 266 267 268 268 270 272 274 275 275 275 274 274 275 277 277 276 275 274 274 274 273 273 272 270 269 268 269 271 272 273 274 275 277 276 275 276 278 278 279 280 280 279 279 279 283 287 288 291 297 295 291 295 299 299 301 299 291 286 285 285 286 287 286 284 284 286 286
253 254 253 252 253 256 258 259 260 260 260 259 260 259 259 260 262 264 265 266 265 265 267 269 269 271 274 275 275 274 273 273 274 275 276 275 273 272 272 271 271 271 271 270 270 270 269 271 272 273 273 273 274 276 276 275 275 275 275 276 278 279 278 278 281 286 291 291 292 294 292 290 294 299 300 299 291 285 284 285 285 285 284 283 283 285 287 286
253 255 255 254 253 254 255 256 256 257 257 258 259 259 260 261 261 263 264 265 266 267 269 270 270 271 273 274 272 272 272 273 274 274 274 273 272 271 271 270 270 271 271 272 273 273 273 274 275 275 275 273 274 275 274 273 273 272 271 273 278 279 278 281 286 289 290 290 290 291 290 291 295 298 295 289 285 284 285 285 283 283 283 282 282 285 287 286
253 255 256 257 256 253 253 254 254 254 254 255 256 258 259 260 261 262 264 265 266 268 268 269 270 270 270 270 269 270 272 272 271 269 269 271 271 271 271 271 272 272 273 274 275 275 276 276 275 275 274 273 274 273 272 272 272 270 270 276 281 282 283 285 287 288 288 287 288 289 288 291 296 294 286 284 284 285 285 285 284 283 282 281 281 285 287 286
254 255 256 258 259 258 256 254 254 254 253 253 254 256 258 259 259 260 261 262 262 264 266 268 269 269 267 266 267 270 270 268 267 267 268 271 273 273 273 273 274 274 275 275 275 276 276 275 275 273 273 274 273 270 269 269 267 268 276 283 285 284 284 284 283 284 286 286 287 288 290 292 292 287 283 283 285 285 286 285 284 283 281 279 281 286 287 284
Height
5900 5900 5901 5901 5901 5902 5902 5902 5903 5903 5903 5902 5902 5902 5902 5902 5902 5902 5902 5902 5902 5902 5901 5901 5901 5900 5900 5900 5899 5899 5898 5898 5897 5896 5895 5895 5894 5893 5892 5891 5891 5890 5889 5888 5888 5887 5886 5884 5883 5882 5881 5880 5880 5879 5878 5877 5876 5875 5874 5873 5872 5871 5870 5869 5868 5867 5866 5865 5864 5863 5862 5861 5860 5860 5859 5858 5858 5857 5856 5855 5855 5854 5853 5853 5852 5852 5851 5851
5898 5898 5899 5899 5899 5900 5900 5900 5901 5901 5901 5901 5901 5901 5901 5901 5901 5901 5901 5901 5900 5900 5900 5900 5899 5899 5899 5898 5898 5898 5897 5897 5896 5895 5894 5894 5893 5892 5891 5891 5890 5889 5888 5887 5887 5886 5885 5884 5883 5882 5881 5880 5879 5878 5877 5876 5875 5874 5873 5872 5871 5870 5869 5868 5867 5866 5865 5864 5863 5861 5861 5860 5859 5858 5858 5857 5856 5855 5854 5854 5854 5853 5852 5851 5850 5850 5849 5848
5896 5896 5896 5897 5897 5898 5898 5898 5899 5899 5899 5899 5899 5899 5899 5899 5899 5899 5899 5899 5899 5899 5899 5898 5898 5898 5897 5897 5897 5896 5896 5895 5895 5894 5893 5893 5892 5891 5891 5890 5889 5888 5887 5886 5885 5884 5884 5883 5882 5881 5880 5879 5878 5877 5876 5875 5874 5873 5872 5871 5870 5869 5868 5867 5866 5865 5864 5863 5862 5860 5859 5859 5858 5857 5856 5856 5855 5854 5853 5853 5852 5851 5850 5849 5848 5848 5847 5846
5893 5893 5894 5894 5895 5895 5896 5896 5896 5897 5897 5897 5897 5897 5897 5897 5898 5898 5897 5897 5897 5897 5897 5897 5897 5896 5896 5896 5895 5895 5894 5894 5893 5893 5892 5892 5891 5890 5890 5889 5888 5887 5886 5885 5884 5883 5882 5881 5881 5880 5879 5878 5877 5876 5875 5874 5873 5872 5871 5870 5869 5868 5867 5866 5865 5864 5863 5862 5861 5859 5858 5858 5857 5856 5855 5854 5854 5853 5852 5851 5850 5849 5848 5847 5846 5845 5844 5843
5891 5891 5891 5892 5892 5893 5893 5893 5894 5894 5895 5895 5895 5895 5895 5895 5895 5896 5896 5896 5896 5896 5895 5895 5895 5895 5895 5894 5894 5893 5893 5893 5892 5891 5891 5890 5890 5889 5888 5888 5887 5886 5885 5884 5883 5882 5881 5880 5879 5878 5877 5876 5876 5875 5874 5873 5872 5871 5870 5869 5867 5866 5865 5864 5863 5862 5861 5860 5859 5858 5857 5856 5856 5855 5854 5853 5852 5851 5850 5849 5848 5847 5846 5844 5843 5843 5842 5841
5888 5888 5888 5889 5889 5889 5890 5891 5891 5892 5892 5892 5893 5893 5893 5893 5893 5893 5894 5894 5893 5893 5893 5893 5893 5893 5893 5892 5892 5892 5891 5891 5890 5890 5889 5889 5888 5887 5887 5886 5886 5885 5884 5883 5882 5881 5880 5879 5878 5877 5876 5875 5874 5873 5872 5871 5870 5869 5869 5867 5866 5865 5864 5863 5862 5861 5860 5859 5858 5857 5856 5855 5854 5853 5852 5851 5850 5849 5848 5847 5846 5845 5843 5842 5841 5840 5839 5838
5886 5886 5886 5886 5886 5886 5887 5887 5888 5889 5889 5890 5890 5890 5890 5891 5891 5891 5891 5891 5891 5891 5891 5891 5891 5891 5891 5891 5890 5890 5889 5889 5888 5888 5887 5887 5887 5886 5885 5885 5884 5884 5883 5882 5881 5880 5879 5878 5877 5876 5875 5874 5873 5871 5870 5869 5868 5867 5867 5866 5864 5863 5862 5861 5860 5859 5858 5857 5856 5855 5854 5853 5852 5851 5850 5849 5849 5848 5846 5845 5844 5843 5841 5840 5839 5837 5836 5835
5883 5883 5884 5884 5884 5884 5884 5884 5885 5885 5886 5887 5887 5887 5888 5888 5888 5888 5888 5888 5889 5889 5889 5888 5888 5888 5888 5888 5888 5888 5887 5887 5886 5886 5885 5885 5885 5884 5884 5883 5883 5882 5881 5880 5880 5879 5878 5877 5876 5875 5874 5872 5871 5870 5869 5867 5866 5865 5864 5863 5862 5861 5860 5859 5858 5857 5856 5855 5854 5853 5852 5851 5850 5849 5848 5847 5846 5845 5844 5843 5842 5840 5839 5838 5836 5835 5834 5833
5880 5881 5881 5881 5881 5881 5881 5882 5882 5882 5883 5883 5884 5884 5884 5885 5885 5885 5885 5885 5886 5886 5886 5886 5886 5886 5886 5885 5885 5885 5885 5885 5884 5884 5883 5883 5882 5882 5882 5881 5881 5880 5879 5879 5878 5877 5876 5875 5874 5873 5872 5871 5870 5869 5867 5866 5864 5863 5862 5861 5860 5859 5858 5857 5856 5855 5854 5853 5853 5851 5850 5849 5848 5847 5846 5845 5844 5843 5842 5841 5839 5838 5836 5835 5834 5832 5831 5830
5877 5878 5878 5878 5878 5878 5879 5879 5879 5879 5879 5880 5880 5881 5881 5881 5882 5882 5882 5882 5883 5883 5883 5883 5883 5883 5883 5883 5883 5882 5882 5882 5882 5881 5881 5880 5880 5880 5879 5879 5878 5878 5877 5876 5876 5875 5874 5873 5872 5871 5870 5869 5868 5867 5866 5864 5863 5861 5860 5859 5858 5857 5856 5855 5854 5853 5852 5851 5851 5850 5849 5847 5845 5845 5844 5843 5842 5841 5840 5838 5837 5835 5834 5833 5831 5830 5829 5827
5874 5874 5874 5875 5875 5875 5875 5875 5876 5876 5876 5877 5877 5878 5878 5878 5878 5878 5879 5879 5879 5879 5880 5880 5880 5880 5880 5880 5880 5879 5879 5879 5879 5879 5878 5878 5877 5877 5876 5876 5876 5875 5875 5874 5873 5872 5872 5871 5870 5869 5868 5867 5866 5865 5864 5863 5861 5860 5858 5856 5855 5854 5853 5852 5851 5851 5850 5849 5848 5848 5848 5845 5842 5842 5842 5841 5840 5839 5838 5836 5834 5833 5831 5830 5828 5827 5825 5824
5870 5871 5871 5871 5871 5872 5872 5872 5872 5872 5872 5873 5873 5874 5874 5875 5875 5875 5875 5875 5875 5876 5876 5876 5876 5876 5877 5877 5877 5876 5876 5876 5876 5876 5875 5875 5875 5874 5874 5873 5873 5872 5872 5871 5871 5870 5869 5869 5868 5867 5866 5865 5864 5863 5862 5861 5859 5858 5856 5855 5853 5852 5851 5850 5849 5848 5847 5846 5846 5845 5847 5845 5839 5838 5839 5839 5838 5837 5835 5834 5832 5830 5828 5827 5825 5823 5822 5820
5867 5867 5867 5868 5868 5868 5868 5868 5868 5869 5869 5869 5869 5870 5870 5871 5871 5871 5871 5871 5872 5872 5872 5872 5872 5873 5873 5873 5873 5873 5873 5873 5872 5872 5872 5872 5872 5871 5871 5870 5870 5869 5869 5868 5868 5867 5867 5866 5865 5864 5863 5862 5861 5861 5860 5859 5857 5856 5855 5853 5851 5850 5848 5847 5846 5846 5844 5843 5843 5842 5844 5845 5839 5835 5835 5835 5835 5834 5833 5831 5829 5827 5825 5823 5822 5820 5818 5816
5863 5863 5864 5864 5864 5864 5864 5864 5865 5865 5865 5865 5865 5865 5866 5867 5867 5867 5867 5867 5868 5868 5868 5868 5869 5869 5870 5870 5869 5869 5869 5869 5869 5869 5869 5869 5869 5868 5868 5867 5867 5866 5866 5865 5865 5864 5864 5863 5862 5862 5860 5859 5858 5858 5857 5856 5855 5853 5852 5851 5850 5848 5846 5844 5843 5842 5841 5839 5839 5837 5840 5843 5840 5834 5832 5832 5831 5831 5830 5828 5826 5824 5822 5820 5818 5816 5814 5812
5859 5859 5860 5860 5860 5860 5860 5861 5861 5861 5861 5861 5861 5861 5862 5863 5863 5863 5863 5863 5864 5864 5864 5864 5865 5865 5866 5866 5866 5866 5865 5866 5866 5865 5865 5865 5865 5865 5865 5864 5864 5863 5863 5862 5862 5861 5860 5860 5859 5859 5858 5857 5855 5854 5854 5853 5852 5850 5849 5848 5847 5846 5844 5842 5839 5838 5836 5835 5835 5833 5833 5838 5839 5834 5831 5829 5827 5827 5827 5825 5822 5820 5819 5817 5815 5813 5811 5809
5855 5855 5856 5856 5856 5857 5857 5857 5857 5857 5857 5857 5857 5857 5857 5859 5859 5859 5859 5859 5859 5860 5860 5861 5860 5861 5862 5863 5862 5862 5862 5862 5862 5862 5862 5862 5862 5862 5861 5861 5860 5860 5859 5859 5858 5857 5857 5856 5856 5855 5855 5854 5852 5851 5850 5849 5849 5847 5845 5845 5844 5843 5841 5840 5837 5835 5832 5831 5831 5829 5828 5833 5834 5832 5830 5827 5824 5824 5824 5822 5819 5817 5816 5814 5811 5809 5807 5805
5851 5852 5852 5852 5852 5853 5853 5853 5853 5853 5854 5853 5853 5853 5853 5854 5855 5855 5855 5855 5855 5856 5856 5856 5856 5856 5858 5858 5858 5858 5857 5858 5859 5859 5859 5859 5859 5858 5858 5857 5857 5856 5856 5855 5854 5854 5853 5852 5852 5852 5851 5851 5849 5847 5846 5846 5845 5843 5842 5841 5841 5840 5838 5837 5834 5831 5828 5827 5827 5825 5823 5827 5829 5829 5827 5825 5822 5821 5821 5819 5816 5814 5812 5810 5808 5805 5803 5801
5847 5848 5848 5848 5849 5849 5849 5849 5849 5850 5850 5849 5849 5850 5849 5849 5850 5851 5851 5851 5851 5851 5851 5852 5852 5852 5853 5854 5854 5854 5853 5854 5855 5855 5856 5855 5855 5854 5854 5854 5853 5852 5852 5851 5851 5850 5848 5848 5848 5848 5848 5847 5845 5844 5842 5842 5841 5840 5838 5837 5837 5836 5835 5834 5830 5827 5825 5822 5823 5821 5818 5820 5824 5825 5824 5821 5818 5818 5817 5815 5812 5811 5809 5806 5804 5801 5799 5797
5843 5843 5844 5844 5844 5844 5844 5845 5845 5846 5846 5846 5845 5845 5845 5845 5845 5846 5846 5846 5847 5846 5846 5847 5847 5848 5849 5849 5849 5848 5849 5850 5851 5852 5852 5851 5851 5851 5850 5850 5849 5848 5848 5847 5846 5845 5844 5844 5844 5845 5844 5842 5840 5840 5839 5838 5837 5836 5834 5833 5833 5832 5832 5830 5826 5824 5821 5817 5818 5817 5813 5813 5817 5820 5820 5817 5814 5814 5813 5811 5809 5807 5804 5801 5799 5797 5795 5792
5838 5839 5839 5839 5839 5840 5840 5840 5841 5841 5842 5842 5841 5841 5841 5841 5841 5841 5841 5842 5842 5842 5842 5842 5842 5843 5844 5844 5844 5843 5845 5846 5847 5848 5848 5847 5847 5846 5846 5846 5845 5844 5844 5843 5842 5841 5840 5839 5841 5841 5838 5837 5836 5836 5835 5833 5832 5831 5830 5829 5828 5827 5827 5826 5822 5820 5818 5812 5814 5814 5808 5809 5812 5814 5815 5812 5809 5810 5808 5806 5805 5803 5800 5797 5795 5793 5790 5787
5833 5834 5834 5834 5835 5835 5835 5836 5836 5836 5837 5837 5837 5836 5836 5836 5836 5836 5836 5837 5837 5837 5837 5837 5837 5838 5839 5838 5839 5839 5840 5842 5843 5844 5843 5843 5842 5841 5841 5841 5840 5840 5840 5838 5837 5837 5836 5836 5838 5836 5833 5833 5832 5831 5830 5829 5828 5826 5825 5823 5823 5823 5821 5820 5819 5816 5813 5808 5808 5808 5804 5805 5809 5809 5811 5807 5804 5806 5804 5801 5801 5799 5795 5792 5790 5788 5786 5782
5828 5828 5829 5829 5830 5830 5830 5831 5832 5832 5831 5832 5832 5832 5832 5831 5831 5831 5830 5831 5833 5832 5831 5832 5832 5832 5833 5833 5834 5835 5836 5837 5839 5839 5838 5838 5837 5836 5836 5836 5836 5835 5835 5834 5832 5831 5830 5832 5834 5831 5829 5829 5827 5826 5826 5824 5823 5821 5820 5818 5818 5818 5815 5814 5814 5811 5808 5803 5801 5801 5797 5800 5804 5804 5807 5805 5799 5800 5800 5797 5797 5794 5791 5788 5786 5784 5780 5777
5823 5823 5824 5824 5825 5825 5825 5826 5827 5827 5826 5827 5827 5827 5827 5827 5826 5825 5824 5823 5826 5828 5827 5826 5826 5827 5828 5829 5830 5831 5831 5833 5834 5834 5833 5832 5832 5831 5830 5831 5830 5829 5830 5829 5827 5825 5825 5828 5829 5827 5825 5824 5823 5822 5821 5820 5818 5816 5815 5814 5814 5813 5809 5807 5807 5805 5803 5798 5796 5794 5790 5791 5796 5798 5803 5803 5795 5793 5794 5794 5792 5790 5787 5785 5782 5779 5775 5772
5817 5818 5819 5819 5819 5819 5819 5820 5821 5821 5821 5822 5822 5822 5822 5822 5821 5821 5819 5815 5816 5823 5824 5821 5820 5821 5823 5825 5826 5827 5827 5828 5828 5829 5829 5827 5826 5825 5825 5825 5824 5824 5825 5823 5821 5820 5821 5823 5823 5822 5821 5819 5818 5817 5817 5815 5813 5811 5810 5810 5809 5807 5805 5802 5800 5798 5796 5794 5791 5789 5783 5782 5785 5789 5797 5800 5795 5787 5786 5788 5788 5784 5783 5782 5778 5775 5772 5767
5812 5813 5813 5814 5814 5813 5814 5814 5815 5816 5816 5816 5816 5817 5817 5817 5817 5815 5814 5809 5805 5813 5820 5817 5816 5817 5820 5821 5821 5823 5822 5822 5824 5824 5823 5822 5821 5820 5819 5819 5818 5819 5819 5817 5815 5814 5817 5818 5817 5817 5815 5814 5813 5812 5812 5810 5807 5805 5805 5806 5804 5802 5800 5797 5795 5791 5788 5787 5786 5786 5780 5773 5771 5777 5786 5791 5790 5786 5781 5781 5781 5779 5778 5778 5775 5771 5768 5763
5806 5807 5808 5808 5808 5808 5808 5808 5809 5810 5810 5811 5810 5811 5811 5811 5812 5810 5809 5803 5795 5801 5810 5811 5812 5814 5816 5818 5818 5818 5817 5817 5819 5819 5818 5817 5816 5814 5814 5814 5814 5814 5814 5812 5809 5809 5813 5814 5812 5811 5810 5808 5808 5808 5808 5805 5801 5799 5801 5802 5799 5797 5795 5792 5790 5787 5783 5779 5778 5782 5781 5768 5759 5767 5778 5781 5782 5783 5779 5775 5773 5773 5773 5772 5770 5766 5762 5758
5801 5802 5802 5803 5802 5802 5802 5802 5803 5803 5804 5805 5805 5806 5806 5806 5806 5806 5804 5796 5787 5790 5796 5802 5808 5810 5812 5814 5815 5815 5813 5813 5814 5814 5813 5812 5811 5810 5809 5809 5809 5808 5808 5806 5803 5804 5808 5808 5807 5806 5804 5803 5803 5803 5802 5799 5796 5794 5795 5795 5794 5793 5790 5787 5785 5782 5779 5774 5770 5777 5781 5764 5749 5757 5770 5773 5775 5778 5777 5772 5766 5765 5766 5765 5763 5759 5756 5751
5796 5796 5797 5797 5797 5796 5797 5797 5797 5798 5798 5799 5800 5800 5799 5801 5801 5800 5799 5787 5778 5780 5786 5793 5802 5805 5808 5810 5811 5811 5809 5808 5808 5808 5808 5808 5806 5805 5804 5804 5804 5803 5802 5800 5798 5800 5802 5802 5802 5801 5799 5798 5798 5797 5795 5794 5791 5789 5790 5789 5787 5787 5784 5781 5779 5776 5775 5768 5763 5773 5778 5762 5746 5749 5760 5765 5768 5771 5771 5768 5763 5759 5758 5757 5755 5752 5748 5744
5791 5791 5792 5792 5791 5791 5791 5791 5791 5791 5792 5792 5794 5793 5794 5795 5794 5795 5792 5777 5769 5774 5781 5786 5793 5799 5803 5805 5805 5805 5804 5803 5802 5802 5803 5802 5801 5800 5799 5799 5798 5797 5797 5795 5794 5796 5797 5796 5796 5794 5794 5794 5793 5791 5790 5788 5786 5785 5785 5783 5781 5780 5777 5775 5772 5771 5770 5761 5760 5769 5770 5759 5744 5742 5754 5760 5761 5763 5763 5761 5758 5755 5753 5750 5749 5746 5741 5738
5785 5785 5786 5786 5786 5786 5785 5786 5785 5785 5786 5786 5786 5787 5788 5788 5788 5788 5779 5765 5765 5773 5778 5780 5785 5792 5797 5798 5799 5798 5797 5797 5796 5796 5796 5795 5795 5794 5793 5793 5793 5792 5791 5790 5790 5792 5792 5790 5790 5789 5789 5788 5787 5786 5784 5783 5782 5781 5780 5777 5776 5773 5770 5768 5765 5766 5763 5754 5757 5763 5762 5756 5740 5734 5748 5754 5754 5757 5755 5754 5753 5750 5747 5744 5742 5739 5735 5732
5778 5779 5779 5780 5780 5780 5780 5780 5780 5779 5780 5780 5780 5781 5781 5781 5782 5777 5762 5758 5766 5771 5773 5776 5780 5785 5789 5790 5791 5791 5791 5791 5790 5790 5789 5788 5787 5787 5787 5787 5787 5786 5785 5785 5786 5787 5786 5785 5784 5784 5783 5783 5782 5780 5779 5778 5777 5775 5774 5772 5770 5766 5763 5761 5759 5760 5755 5749 5753 5756 5753 5749 5735 5732 5745 5747 5746 5748 5747 5748 5747 5744 5742 5739 5737 5733 5729 5727
5771 5772 5773 5774 5774 5774 5774 5774 5773 5773 5773 5773 5773 5773 5774 5774 5771 5762 5754 5759 5765 5765 5768 5774 5776 5778 5780 5781 5784 5785 5785 5784 5784 5784 5783 5782 5781 5780 5781 5781 5781 5780 5778 5779 5780 5779 5779 5779 5778 5778 5778 5778 5776 5775 5773 5772 5771 5769 5768 5766 5763 5759 5756 5754 5753 5752 5748 5745 5748 5748 5745 5738 5729 5733 5741 5740 5741 5740 5738 5742 5741 5738 5736 5733 5731 5726 5723 5721
5763 5764 5766 5767 5767 5768 5767 5767 5767 5766 5765 5766 5766 5766 5768 5764 5756 5752 5753 5758 5760 5760 5766 5770 5770 5771 5772 5773 5776 5777 5777 5778 5778 5777 5776 5776 5774 5774 5775 5774 5775 5774 5772 5773 5772 5771 5771 5772 5772 5772 5772 5772 5769 5769 5767 5765 5764 5762 5761 5759 5756 5753 5750 5748 5747 5744 5740 5740 5742 5740 5736 5729 5726 5731 5733 5733 5737 5734 5731 5736 5735 5731 5731 5728 5725 5720 5716 5715
5756 5757 5758 5760 5761 5760 5760 5760 5759 5759 5758 5758 5757 5759 5758 5752 5746 5747 5751 5755 5757 5759 5761 5762 5762 5764 5764 5765 5767 5769 5770 5770 5771 5771 5770 5769 5768 5768 5769 5769 5769 5768 5767 5765 5764 5764 5763 5763 5765 5765 5765 5764 5762 5762 5760 5759 5757 5755 5754 5752 5749 5749 5746 5742 5741 5738 5733 5735 5735 5731 5727 5724 5723 5725 5722 5724 5732 5728 5725 5729 5728 5725 5725 5722 5718 5713 5710 5708
5749 5750 5751 5753 5754 5753 5751 5751 5751 5751 5750 5749 5749 5749 5746 5742 5742 5745 5748 5750 5753 5755 5755 5756 5756 5756 5757 5758 5758 5760 5762 5762 5763 5763 5762 5762 5761 5762 5763 5763 5763 5762 5761 5759 5757 5758 5755 5754 5757 5756 5755 5756 5755 5755 5755 5752 5750 5748 5747 5745 5744 5745 5742 5736 5733 5733 5730 5728 5728 5725 5720 5720 5721 5718 5714 5720 5727 5723 5719 5722 5721 5718 5718 5715 5710 5706 5703 5700
5741 5743 5744 5746 5747 5745 5742 5742 5743 5742 5741 5741 5739 5738 5738 5739 5741 5743 5743 5744 5746 5748 5749 5749 5749 5749 5749 5750 5751 5753 5754 5753 5755 5754 5753 5754 5754 5755 5755 5756 5757 5756 5755 5753 5752 5751 5748 5748 5750 5748 5746 5747 5747 5748 5748 5745 5742 5741 5741 5740 5739 5738 5735 5729 5726 5727 5726 5720 5721 5721 5714 5715 5717 5709 5708 5718 5723 5718 5714 5715 5714 5711 5710 5707 5703 5700 5697 5692
5733 5735 5736 5738 5739 5736 5733 5734 5734 5732 5732 5731 5729 5730 5734 5736 5737 5738 5738 5738 5739 5741 5741 5740 5741 5742 5742 5742 5743 5745 5745 5745 5745 5745 5745 5746 5746 5747 5748 5749 5749 5749 5749 5747 5744 5743 5742 5740 5742 5741 5738 5738 5740 5739 5739 5737 5735 5734 5735 5735 5733 5729 5726 5724 5719 5719 5719 5712 5712 5716 5711 5708 5707 5701 5703 5714 5716 5711 5708 5706 5705 5704 5702 5699 5696 5693 5689 5684
5726 5726 5726 5730 5730 5727 5725 5725 5723 5721 5721 5719 5720 5725 5728 5729 5731 5732 5731 5731 5732 5733 5732 5732 5733 5734 5734 5734 5735 5736 5736 5736 5737 5737 5737 5737 5736 5739 5741 5741 5741 5742 5743 5740 5735 5735 5734 5731 5733 5734 5730 5730 5732 5730 5728 5728 5728 5727 5726 5726 5723 5719 5718 5718 5713 5711 5710 5703 5701 5708 5708 5700 5696 5698 5703 5709 5709 5704 5701 5698 5696 5696 5694 5690 5688 5684 5679 5675
5716 5716 5718 5724 5723 5718 5716 5714 5713 5712 5709 5709 5714 5719 5720 5721 5723 5724 5724 5724 5725 5725 5723 5724 5725 5724 5724 5726 5726 5727 5727 5727 5729 5729 5729 5728 5728 5731 5733 5732 5733 5734 5735 5732 5727 5728 5726 5721 5722 5725 5723 5723 5723 5720 5720 5722 5720 5717 5716 5715 5713 5711 5709 5709 5707 5703 5700 5696 5692 5697 5700 5692 5688 5696 5702 5702 5703 5700 5695 5691 5688 5688 5687 5683 5680 5675 5670 5667
5706 5705 5709 5715 5713 5709 5707 5703 5703 5703 5700 5704 5709 5710 5711 5712 5715 5718 5718 5717 5716 5715 5714 5716 5717 5715 5716 5718 5717 5719 5719 5718 5720 5720 5719 5720 5720 5722 5724 5725 5725 5726 5725 5722 5719 5718 5716 5711 5711 5715 5715 5713 5713 5713 5714 5713 5710 5707 5706 5706 5705 5704 5702 5698 5697 5695 5692 5689 5686 5684 5685 5684 5685 5692 5696 5695 5696 5695 5689 5684 5681 5682 5680 5676 5671 5667 5663 5661
5695 5692 5698 5705 5702 5700 5698 5692 5694 5696 5694 5697 5701 5702 5703 5706 5709 5712 5710 5708 5706 5705 5706 5707 5708 5708 5710 5710 5710 5712 5710 5708 5710 5710 5708 5711 5712 5713 5716 5717 5717 5716 5715 5712 5709 5708 5706 5702 5702 5704 5705 5704 5705 5706 5703 5700 5699 5698 5697 5698 5698 5698 5695 5688 5686 5689 5686 5681 5678 5672 5667 5673 5683 5688 5690 5689 5687 5686 5684 5678 5675 5674 5671 5667 5663 5659 5657 5655
5684 5682 5689 5693 5690 5690 5688 5682 5685 5687 5684 5688 5693 5695 5698 5700 5701 5702 5702 5700 5698 5697 5698 5699 5700 5701 5701 5702 5702 5703 5701 5699 5700 5700 5698 5701 5704 5705 5709 5710 5707 5706 5704 5701 5700 5700 5696 5692 5691 5693 5695 5697 5697 5695 5692 5689 5688 5688 5688 5691 5691 5689 5687 5682 5678 5680 5678 5671 5669 5661 5652 5661 5680 5685 5683 5682 5679 5678 5678 5673 5669 5667 5662 5658 5655 5652 5650 5647
5673 5675 5679 5679 5678 5679 5675 5672 5676 5676 5675 5682 5686 5687 5688 5689 5690 5693 5694 5693 5690 5690 5691 5691 5693 5693 5693 5694 5693 5693 5693 5690 5690 5691 5689 5691 5696 5699 5701 5701 5698 5696 5694 5691 5690 5689 5685 5681 5681 5681 5684 5687 5687 5684 5682 5679 5679 5680 5682 5684 5681 5679 5679 5675 5669 5668 5665 5661 5658 5650 5641 5652 5674 5679 5675 5674 5672 5671 5671 5667 5662 5658 5654 5652 5648 5646 5643 5640
5665 5665 5666 5667 5667 5665 5661 5663 5668 5666 5669 5675 5676 5677 5677 5676 5680 5684 5685 5684 5683 5683 5683 5682 5684 5683 5684 5686 5685 5685 5685 5680 5679 5682 5682 5684 5689 5691 5691 5690 5688 5685 5684 5682 5680 5678 5673 5670 5670 5670 5671 5674 5675 5674 5673 5672 5674 5674 5675 5675 5672 5671 5670 5664 5661 5657 5650 5648 5648 5641 5634 5647 5666 5669 5665 5666 5666 5665 5663 5658 5654 5650 5647 5645 5642 5638 5636 5633
5656 5653 5654 5656 5654 5649 5651 5659 5661 5657 5660 5663 5662 5666 5667 5666 5671 5677 5677 5676 5676 5676 5673 5672 5673 5675 5676 5677 5675 5676 5676 5673 5671 5673 5675 5678 5680 5681 5681 5679 5678 5676 5674 5673 5671 5667 5663 5661 5661 5660 5658 5660 5663 5665 5666 5666 5667 5665 5666 5666 5664 5665 5662 5656 5654 5647 5636 5634 5637 5633 5630 5640 5656 5659 5656 5658 5659 5657 5655 5649 5644 5642 5639 5637 5635 5631 5629 5626
5644 5640 5642 5646 5641 5635 5641 5651 5651 5647 5651 5652 5650 5655 5658 5659 5665 5670 5668 5666 5667 5666 5664 5663 5665 5666 5667 5667 5666 5667 5669 5668 5665 5664 5669 5672 5671 5670 5670 5669 5669 5668 5665 5664 5661 5656 5652 5650 5652 5651 5648 5649 5653 5658 5660 5657 5654 5654 5656 5658 5658 5657 5655 5651 5645 5635 5629 5625 5624 5630 5632 5630 5640 5649 5649 5651 5651 5646 5644 5640 5635 5632 5630 5628 5627 5624 5621 5619
5631 5628 5632 5638 5632 5624 5629 5640 5641 5639 5642 5642 5640 5645 5650 5651 5655 5657 5657 5657 5658 5657 5654 5655 5656 5656 5658 5660 5660 5659 5661 5660 5655 5656 5662 5665 5662 5659 5657 5657 5658 5657 5657 5655 5651 5646 5640 5638 5642 5643 5640 5641 5645 5650 5650 5645 5643 5646 5647 5648 5652 5651 5647 5643 5634 5628 5627 5618 5612 5626 5632 5620 5624 5639 5642 5644 5644 5637 5633 5631 5626 5623 5622 5620 5618 5616 5614 5612
5618 5617 5621 5627 5622 5613 5618 5629 5632 5631 5631 5630 5629 5634 5637 5638 5641 5645 5648 5650 5648 5647 5645 5645 5647 5649 5653 5655 5651 5648 5651 5649 5646 5650 5655 5655 5651 5647 5646 5647 5646 5646 5647 5644 5640 5637 5629 5626 5635 5635 5630 5632 5637 5640 5640 5634 5633 5637 5637 5638 5645 5644 5637 5633 5628 5626 5623 5609 5603 5618 5623 5612 5617 5629 5632 5636 5635 5626 5622 5622 5619 5616 5615 5612 5608 5607 5606 5604
5608 5606 5609 5613 5609 5606 5609 5617 5620 5616 5615 5618 5617 5619 5624 5627 5631 5636 5639 5637 5636 5638 5637 5635 5641 5645 5646 5646 5641 5637 5641 5642 5641 5644 5645 5642 5639 5637 5636 5637 5636 5636 5636 5632 5630 5628 5620 5619 5628 5628 5620 5621 5627 5631 5629 5623 5622 5626 5627 5631 5636 5635 5629 5624 5623 5625 5621 5605 5599 5607 5606 5605 5615 5622 5623 5627 5624 5614 5612 5613 5612 5609 5606 5602 5599 5599 5598 5597
5596 5595 5599 5599 5595 5596 5599 5603 5603 5600 5602 5606 5603 5606 5615 5618 5621 5626 5626 5624 5625 5629 5629 5628 5635 5639 5635 5633 5629 5625 5632 5636 5634 5635 5635 5628 5625 5626 5625 5626 5627 5626 5624 5623 5622 5619 5613 5612 5619 5619 5608 5607 5619 5624 5617 5612 5611 5611 5615 5624 5629 5628 5624 5620 5618 5620 5615 5602 5598 5598 5592 5595 5611 5617 5614 5614 5611 5605 5603 5603 5603 5602 5598 5593 5590 5590 5590 5588
5586 5586 5589 5583 5576 5581 5587 5589 5589 5586 5586 5590 5591 5598 5605 5606 5613 5618 5614 5612 5616 5618 5618 5620 5626 5627 5622 5619 5618 5620 5628 5628 5622 5624 5624 5614 5611 5614 5614 5615 5617 5614 5614 5616 5613 5610 5607 5605 5609 5609 5595 5596 5613 5615 5604 5602 5600 5595 5603 5617 5623 5622 5620 5616 5612 5608 5605 5599 5596 5592 5584 5588 5603 5608 5602 5600 5599 5596 5594 5594 5594 5593 5590 5584 5581 5582 5582 5580
5577 5574 5576 5571 5562 5564 5572 5576 5575 5571 5570 5577 5584 5590 5592 5595 5604 5607 5599 5598 5606 5609 5608 5611 5614 5612 5607 5606 5612 5617 5619 5614 5609 5611 5610 5602 5600 5603 5604 5604 5605 5605 5606 5607 5603 5602 5601 5597 5599 5597 5584 5586 5602 5602 5593 5591 5584 5582 5599 5612 5615 5615 5612 5606 5601 5597 5596 5593 5589 5584 5582 5587 5595 5595 5591 5589 5587 5584 5584 5585 5584 5581 5578 5575 5573 5574 5574 5572